Home > Products > Valid Products > RWR

000
ASUS43 KEAX 260110
RWREAX

WEATHER ROUNDUP FOR EASTERN KANSAS AND NORTHWEST MISSOURI
NATIONAL WEATHER SERVICE KANSAS CITY/PLEASANT HILL MO
800 PM CDT WED MAY 25 2016

KSZ040-057-103>105-MOZ028-029-037-043-260200-
...KANSAS CITY METROPOLITAN AREA...

CITY           SKY/WX    TMP DP  RH WIND       PRES   REMARKS
K.C. INTL      MOCLDY    76  67  73 S8        29.86R
K.C. DOWNTOWN  MOCLDY    80  67  64 S8        29.84S
LEES SUMMIT    PTCLDY    80  66  62 S12       29.86S
OLATHE - IXD   PTCLDY    78  70  76 SE7       29.86S
OLATHE - OJC   PTCLDY    76  68  76 S9        29.86S
LAWRENCE       MOCLDY    78  69  73 SE6       29.83S

$$

MOZ001>008-011>017-020>025-030>033-038>040-044>046-053-054-260200-
...NORTHERN AND CENTRAL MISSOURI...

CITY           SKY/WX    TMP DP  RH WIND       PRES   REMARKS
ST. JOSEPH     CLOUDY    78  67  68 SE7       29.84R
MOSBY          CLOUDY    81  64  57 S6        29.86R
WARRENSBURG    CLEAR     77  64  65 SE6       29.88S
WHITEMAN AFB   MOCLDY    80  69  69 SW8       29.88R
CLINTON        CLOUDY    79  68  69 S6        29.90S
SEDALIA        CLOUDY    79  66  64 S8        29.91R
WARSAW         NOT AVBL
CHILLICOTHE      N/A     81  65  58 S3        29.88R
KIRKSVILLE     CLOUDY    78  63  59 S6        29.90R

$$

MOZ041-047>049-056>058-063>065-088>090-097-260200-
...EASTERN AND SOUTHERN MISSOURI...

CITY           SKY/WX    TMP DP  RH WIND       PRES   REMARKS
ST. LOUIS INTL PTCLDY    81  63  54 S10       29.95R
SPIRIT OF STL  PTCLDY    78  64  61 S6        29.93R
COLUMBIA       CLEAR     77  65  66 S7        29.92R
JEFFERSON CITY CLEAR     79  63  57 SE5       29.91R
ROLLA          CLEAR     73  64  73 S9        29.95R
SPRINGFIELD    CLOUDY    76  67  73 SE12      29.95R
BRANSON        PTCLDY    75  68  78 S7        29.99R
JOPLIN         PTCLDY    78  71  79 S12       29.90S
WEST PLAINS    CLEAR     73  64  73 S8        30.03R

$$

IAZ060-094-KSZ022-034>040-054-083-096-NEZ052-066-093-260200-
...KANSAS...SOUTHEAST NEBRASKA AND IOWA...

CITY           SKY/WX    TMP DP  RH WIND       PRES   REMARKS
TOPEKA         CLOUDY    79  69  71 SE7       29.83R
MANHATTAN      CLOUDY    77  69  76 E5        29.78F
EMPORIA        PTCLDY    79  73  82 SE12      29.81S
CHANUTE        CLEAR     80  72  76 S15       29.84F
WICHITA        PTCLDY    84  72  67 S20G25    29.78S
OMAHA          MOCLDY    76  67  73 SE7       29.82S
LINCOLN        CLEAR     76  67  73 S7        29.82F
FALLS CITY     CLOUDY    78  68  71 SE7       29.82F
LAMONI         CLOUDY    75  66  73 S3        29.87S
DES MOINES     CLOUDY    78  63  59 SE5       29.85S

$$







000
ASUS43 KEAX 252010
RWREAX

WEATHER ROUNDUP FOR EASTERN KANSAS AND NORTHWEST MISSOURI
NATIONAL WEATHER SERVICE KANSAS CITY/PLEASANT HILL MO
300 PM CDT WED MAY 25 2016

KSZ040-057-103>105-MOZ028-029-037-043-252100-
...KANSAS CITY METROPOLITAN AREA...

CITY           SKY/WX    TMP DP  RH WIND       PRES   REMARKS
K.C. INTL      MOSUNNY   80  65  59 S9G18     29.88F
K.C. DOWNTOWN  SUNNY     83  64  52 S9G18     29.87F
LEES SUMMIT    SUNNY     81  64  56 S13G22    29.90F
OLATHE - IXD   SUNNY     81  65  58 SE16      29.90F
OLATHE - OJC   SUNNY     78  64  61 S14       29.89F
LAWRENCE       SUNNY     82  67  60 S14G22    29.87F

$$

MOZ001>008-011>017-020>025-030>033-038>040-044>046-053-054-252100-
...NORTHERN AND CENTRAL MISSOURI...

CITY           SKY/WX    TMP DP  RH WIND       PRES   REMARKS
ST. JOSEPH     SUNNY     81  65  58 S14G20    29.87F
MOSBY          CLEAR     81  61  50 S9        29.89S
WARRENSBURG    SUNNY     79  63  57 S12       29.91F
WHITEMAN AFB   MOSUNNY   81  63  54 S8        29.91F
CLINTON        SUNNY     81  63  54 S3        29.94F
SEDALIA        CLOUDY    83  60  45 S7        29.94F
WARSAW         NOT AVBL
CHILLICOTHE      N/A     82  63  52 VRB6      29.90R
KIRKSVILLE     MOSUNNY   77  65  66 S9        29.91F

$$

MOZ041-047>049-056>058-063>065-088>090-097-252100-
...EASTERN AND SOUTHERN MISSOURI...

CITY           SKY/WX    TMP DP  RH WIND       PRES   REMARKS
ST. LOUIS INTL PTSUNNY   81  67  62 SE13      29.97F
SPIRIT OF STL  CLOUDY   N/A N/A N/A SW12      29.95F
COLUMBIA       SUNNY     83  62  49 VRB6      29.94F
JEFFERSON CITY SUNNY     83  60  45 VRB5      29.93F
ROLLA          CLOUDY    76  63  64 S6        29.96S
SPRINGFIELD    SUNNY     80  62  54 S18       29.97R
BRANSON        MOSUNNY   75  66  73 E8        30.01S
JOPLIN         PTSUNNY   82  67  60 S16G22    29.93S
WEST PLAINS    CLOUDY    71  63  75 VRB3      30.01R

$$

IAZ060-094-KSZ022-034>040-054-083-096-NEZ052-066-093-252100-
...KANSAS...SOUTHEAST NEBRASKA AND IOWA...

CITY           SKY/WX    TMP DP  RH WIND       PRES   REMARKS
TOPEKA         MOSUNNY   81  66  60 S15       29.87F
MANHATTAN      CLOUDY    81  68  64 S12G22    29.84S
EMPORIA        CLOUDY    79  67  66 S17G24    29.87F
CHANUTE        CLOUDY    82  68  62 S17       29.89F
WICHITA        PTSUNNY   88  75  65 S17G24    29.81F HX  97
OMAHA          PTSUNNY   79  62  56 S9        29.83F
LINCOLN        CLOUDY    77  65  66 S17       29.84R
FALLS CITY     SUNNY     79  65  62 S17G25    29.86F
LAMONI         CLOUDY    78  62  57 S21G26    29.87R
DES MOINES     CLOUDY    76  63  64 S9        29.86R

$$







000
ASUS43 KEAX 251910
RWREAX

WEATHER ROUNDUP FOR EASTERN KANSAS AND NORTHWEST MISSOURI
NATIONAL WEATHER SERVICE KANSAS CITY/PLEASANT HILL MO
200 PM CDT WED MAY 25 2016

KSZ040-057-103>105-MOZ028-029-037-043-252000-
...KANSAS CITY METROPOLITAN AREA...

CITY           SKY/WX    TMP DP  RH WIND       PRES   REMARKS
K.C. INTL      MOSUNNY   77  63  61 SE8       29.90F
K.C. DOWNTOWN  SUNNY     80  63  55 SE7       29.89F
LEES SUMMIT    SUNNY     78  64  61 SE8       29.92F
OLATHE - IXD   SUNNY     78  63  59 SE13      29.92F
OLATHE - OJC   MOSUNNY   76  63  64 S9        29.92F
LAWRENCE       SUNNY     79  64  60 SE16      29.89F

$$

MOZ001>008-011>017-020>025-030>033-038>040-044>046-053-054-252000-
...NORTHERN AND CENTRAL MISSOURI...

CITY           SKY/WX    TMP DP  RH WIND       PRES   REMARKS
ST. JOSEPH     SUNNY     77  62  59 SE8       29.89F
MOSBY          PTCLDY    77  59  53 SE8       29.90F
WARRENSBURG    CLOUDY    79  64  61 E7        29.93F
WHITEMAN AFB   PTSUNNY   79  63  59 VRB1      29.94S
CLINTON        MOSUNNY   79  64  61 CALM      29.96S
SEDALIA        PTSUNNY   82  63  52 MISG      29.96R
WARSAW         NOT AVBL
CHILLICOTHE      N/A     80  62  54 SE8       29.89F
KIRKSVILLE     CLOUDY    77  64  64 S8        29.94F

$$

MOZ041-047>049-056>058-063>065-088>090-097-252000-
...EASTERN AND SOUTHERN MISSOURI...

CITY           SKY/WX    TMP DP  RH WIND       PRES   REMARKS
ST. LOUIS INTL CLOUDY    79  67  66 S14G20    29.98F
SPIRIT OF STL  CLOUDY   N/A N/A N/A S8        29.96S
COLUMBIA       CLOUDY    79  64  60 VRB6      29.96R
JEFFERSON CITY PTSUNNY   79  62  56 SE7       29.94R
ROLLA          CLOUDY    73  63  70 S9        29.96R
SPRINGFIELD    CLOUDY    78  61  55 S18       29.96R
BRANSON        MOSUNNY   72  64  78 SE9G17    30.01S
JOPLIN         SUNNY     83  66  56 S15G24    29.93F
WEST PLAINS    CLOUDY    66  61  84 CALM      29.97F

$$

IAZ060-094-KSZ022-034>040-054-083-096-NEZ052-066-093-252000-
...KANSAS...SOUTHEAST NEBRASKA AND IOWA...

CITY           SKY/WX    TMP DP  RH WIND       PRES   REMARKS
TOPEKA         MOSUNNY   78  65  63 S10       29.88F
MANHATTAN      CLOUDY    78  67  68 S12G17    29.85F
EMPORIA        CLOUDY    77  66  68 SE14      29.89F
CHANUTE        CLOUDY    80  65  59 S14       29.91S
WICHITA        PTSUNNY   84  73  69 S20G26    29.82F HX  90
OMAHA          MOSUNNY   79  62  56 S10       29.84R
LINCOLN        MOSUNNY   77  64  64 S20G29    29.83S
FALLS CITY     MOSUNNY   76  64  66 S18G25    29.87F
LAMONI         CLOUDY    77  63  61 S14G21    29.85F
DES MOINES     CLOUDY    75  62  64 S12       29.85F

$$







000
ASUS43 KEAX 251610
RWREAX

WEATHER ROUNDUP FOR EASTERN KANSAS AND NORTHWEST MISSOURI
NATIONAL WEATHER SERVICE KANSAS CITY/PLEASANT HILL MO
1100 AM CDT WED MAY 25 2016

KSZ040-057-103>105-MOZ028-029-037-043-251700-
...KANSAS CITY METROPOLITAN AREA...

CITY           SKY/WX    TMP DP  RH WIND       PRES   REMARKS
K.C. INTL      PTSUNNY   72  60  66 NE8       29.92F
K.C. DOWNTOWN  PTSUNNY   73  62  68 E8        29.91F
LEES SUMMIT    CLOUDY    71  62  73 NE8       29.93F
OLATHE - IXD   CLOUDY    74  60  61 VRB5      29.92F
OLATHE - OJC   PTSUNNY   73  59  61 VRB6      29.91F
LAWRENCE       MOSUNNY   76  61  59 E6        29.91R

$$

MOZ001>008-011>017-020>025-030>033-038>040-044>046-053-054-251700-
...NORTHERN AND CENTRAL MISSOURI...

CITY           SKY/WX    TMP DP  RH WIND       PRES   REMARKS
ST. JOSEPH     CLOUDY    72  60  66 NW12      29.97R
MOSBY          PTSUNNY   70  61  73 NE7       29.92F
WARRENSBURG    CLOUDY    70  63  78 N8        29.93R
WHITEMAN AFB   CLOUDY    72  67  84 N9        29.91R
CLINTON        CLOUDY    72  63  73 N9        29.90R
SEDALIA        CLOUDY    75  63  66 MISG      29.93R
WARSAW         NOT AVBL
CHILLICOTHE      N/A     73  64  73 SE5       29.94F
KIRKSVILLE     CLOUDY    69  64  84 CALM      29.98R

$$

MOZ041-047>049-056>058-063>065-088>090-097-251700-
...EASTERN AND SOUTHERN MISSOURI...

CITY           SKY/WX    TMP DP  RH WIND       PRES   REMARKS
ST. LOUIS INTL PTSUNNY   76  65  68 SE9       29.99F
SPIRIT OF STL  CLOUDY   N/A N/A N/A MISG      29.97F
COLUMBIA       CLOUDY    71  67  87 E8        29.95F
JEFFERSON CITY CLOUDY    71  66  84 E9        29.94R
ROLLA          CLOUDY    71  65  81 S14       30.00R
SPRINGFIELD    LGT RAIN  65  58  78 SE32G39   29.91F
BRANSON        TSTM      64  63  94 W9        30.13S FOG
JOPLIN         CLOUDY    70  59  68 S16G24    29.88S
WEST PLAINS    CLOUDY    70  63  78 W9        30.09F

$$

IAZ060-094-KSZ022-034>040-054-083-096-NEZ052-066-093-251700-
...KANSAS...SOUTHEAST NEBRASKA AND IOWA...

CITY           SKY/WX    TMP DP  RH WIND       PRES   REMARKS
TOPEKA         CLOUDY    74  61  63 S9        29.90R
MANHATTAN      CLOUDY    72  63  73 NE7       29.87F
EMPORIA        CLOUDY    71  63  75 S16G24    29.90S
CHANUTE        SUNNY     75  61  61 S17       29.87S
WICHITA        CLOUDY    75  68  78 S18G26    29.84F
OMAHA          PTSUNNY   69  62  78 S8        29.86F
LINCOLN        CLOUDY    68  62  81 S5        29.87F
FALLS CITY     TSTM      64  62  93 E12       29.88F
LAMONI         PTSUNNY   69  64  84 E5        29.90F
DES MOINES     CLOUDY    71  65  81 S10       29.87F

$$







000
ASUS43 KEAX 251410
RWREAX

WEATHER ROUNDUP FOR EASTERN KANSAS AND NORTHWEST MISSOURI
NATIONAL WEATHER SERVICE KANSAS CITY/PLEASANT HILL MO
900 AM CDT WED MAY 25 2016

KSZ040-057-103>105-MOZ028-029-037-043-251500-
...KANSAS CITY METROPOLITAN AREA...

CITY           SKY/WX    TMP DP  RH WIND       PRES   REMARKS
K.C. INTL      LGT RAIN  66  60  81 N16       29.92R
K.C. DOWNTOWN  CLOUDY    70  60  70 N9        29.89R
LEES SUMMIT    CLOUDY    67  60  78 E7        29.88R
OLATHE - IXD   CLOUDY    70  58  65 SW5       29.87R
OLATHE - OJC   CLOUDY    68  57  68 SW5       29.87R
LAWRENCE       CLOUDY    69  60  73 NW10      29.88R

$$

MOZ001>008-011>017-020>025-030>033-038>040-044>046-053-054-251500-
...NORTHERN AND CENTRAL MISSOURI...

CITY           SKY/WX    TMP DP  RH WIND       PRES   REMARKS
ST. JOSEPH     LGT RAIN  69  59  70 N8        29.95R
MOSBY          CLOUDY    68  59  73 CALM      29.90R
WARRENSBURG    CLOUDY    68  61  77 NE5       29.88R
WHITEMAN AFB   NOT AVBL
CLINTON        CLOUDY    68  59  73 S14G20    29.86R
SEDALIA        CLOUDY    70  64  81 E7        29.90R
WARSAW         NOT AVBL
CHILLICOTHE      N/A     71  64  78 N5        29.95R
KIRKSVILLE     CLOUDY    67  64  90 SE16      29.93R

$$

MOZ041-047>049-056>058-063>065-088>090-097-251500-
...EASTERN AND SOUTHERN MISSOURI...

CITY           SKY/WX    TMP DP  RH WIND       PRES   REMARKS
ST. LOUIS INTL LGT RAIN  71  62  73 SW9       30.01S
SPIRIT OF STL  LGT RAIN  67  64  90 SW5       30.00F
COLUMBIA       CLOUDY    66  65  96 SE7       29.95F
JEFFERSON CITY CLOUDY    67  64  90 E9        29.94F
ROLLA          CLOUDY    67  64  90 S9        29.97F
SPRINGFIELD    LGT RAIN  65  60  84 SW12      30.05R
BRANSON        CLOUDY    64  64 100 NW6       30.07R
JOPLIN         TSTM      64  60  87 SE21G29   29.95F
WEST PLAINS    PTSUNNY   65  62  90 S8        30.07R

$$

IAZ060-094-KSZ022-034>040-054-083-096-NEZ052-066-093-251500-
...KANSAS...SOUTHEAST NEBRASKA AND IOWA...

CITY           SKY/WX    TMP DP  RH WIND       PRES   REMARKS
TOPEKA         PTSUNNY   69  60  73 N8        29.89R
MANHATTAN      SUNNY     69  61  75 E7        29.84F
EMPORIA        CLOUDY    69  62  78 S15G22    29.85R
CHANUTE        CLOUDY    68  60  75 S20G28    29.87R
WICHITA        PTSUNNY   70  65  84 S20G25    29.84S
OMAHA          CLOUDY    67  62  84 SW3       29.89S
LINCOLN        LGT RAIN  64  62  93 S5        29.89F
FALLS CITY     LGT RAIN  64  61  90 W8        29.90F
LAMONI         CLOUDY    66  63  90 S6        29.93R
DES MOINES     LGT RAIN  66  63  90 S6        29.91S

$$







000
ASUS43 KEAX 251210
RWREAX

WEATHER ROUNDUP FOR EASTERN KANSAS AND NORTHWEST MISSOURI
NATIONAL WEATHER SERVICE KANSAS CITY/PLEASANT HILL MO
700 AM CDT WED MAY 25 2016

KSZ040-057-103>105-MOZ028-029-037-043-251300-
...KANSAS CITY METROPOLITAN AREA...

CITY           SKY/WX    TMP DP  RH WIND       PRES   REMARKS
K.C. INTL      CLOUDY    71  53  52 S13       29.79S
6HR MIN TEMP:  64; 6HR MAX TEMP:  74; 6HR PCP:  0.07;

K.C. DOWNTOWN  CLOUDY    74  53  48 S9        29.77F
6HR MIN TEMP:  66; 6HR MAX TEMP:  75; 6HR PCP:  0.05;

LEES SUMMIT    CLOUDY    68  57  68 S12G20    29.82S
6HR MIN TEMP:  64; 6HR MAX TEMP:  68; 6HR PCP:  0.03;

OLATHE - IXD   CLOUDY    69  54  58 S9        29.81R
6HR MIN TEMP:  63; 6HR MAX TEMP:  70; 6HR PCP:  0.20;

OLATHE - OJC   CLOUDY    70  53  54 S12       29.80F
6HR MIN TEMP:  62; 6HR MAX TEMP:  71; 6HR PCP:  0.21;

LAWRENCE       CLOUDY    69  55  60 S5        29.81R

$$

MOZ001>008-011>017-020>025-030>033-038>040-044>046-053-054-251300-
...NORTHERN AND CENTRAL MISSOURI...

CITY           SKY/WX    TMP DP  RH WIND       PRES   REMARKS
ST. JOSEPH     CLOUDY    69  55  60 SW10      29.79R
6HR MIN TEMP:  66; 6HR MAX TEMP:  73; 6HR PCP:  0.11;

MOSBY          CLOUDY    64  59  82 E6        29.81S
WARRENSBURG    CLOUDY    63  59  88 SE16      29.81F
WHITEMAN AFB   PTSUNNY   65  65 100 S14       29.87F
6HR MIN TEMP:  61; 6HR MAX TEMP:  66; 6HR PCP:  0.11;

CLINTON        CLOUDY    64  64 100 S9        29.92F
SEDALIA        CLOUDY    66  64  93 S14       29.94F
6HR MIN TEMP:  62; 6HR MAX TEMP:  67;

WARSAW         NOT AVBL
CHILLICOTHE      N/A     66  63  90 SE8       29.85F
6HR MIN TEMP:  66; 6HR MAX TEMP:  69;

KIRKSVILLE     CLOUDY    64  62  93 SE8       29.93S
6HR MIN TEMP:  62; 6HR MAX TEMP:  64;


$$

MOZ041-047>049-056>058-063>065-088>090-097-251300-
...EASTERN AND SOUTHERN MISSOURI...

CITY           SKY/WX    TMP DP  RH WIND       PRES   REMARKS
ST. LOUIS INTL CLOUDY    67  61  81 S7        30.01F
6HR MIN TEMP:  65; 6HR MAX TEMP:  68;

SPIRIT OF STL  PTSUNNY   64  62  93 CALM      29.99F
COLUMBIA       CLOUDY    64  63  96 S12       29.96F
JEFFERSON CITY CLOUDY    63  61  93 E7        29.97F
ROLLA          CLOUDY    64  62  93 S9        29.99F
SPRINGFIELD    RAIN      66  64  93 NW5       30.04S FOG
BRANSON        LGT RAIN  63  63 100 CALM      30.01F
JOPLIN         TSTM      65  61  87 N10       30.07R
WEST PLAINS    CLOUDY    61  59  93 S6        30.07S

$$

IAZ060-094-KSZ022-034>040-054-083-096-NEZ052-066-093-251300-
...KANSAS...SOUTHEAST NEBRASKA AND IOWA...

CITY           SKY/WX    TMP DP  RH WIND       PRES   REMARKS
TOPEKA         CLOUDY    67  56  67 VRB3      29.83R
6HR MIN TEMP:  63; 6HR MAX TEMP:  71; 6HR PCP:  0.48;

MANHATTAN      CLOUDY    64  59  83 VRB7      29.86R
EMPORIA        CLOUDY    66  57  72 S16       29.83R
CHANUTE        CLOUDY    67  60  78 E7        29.86F THUNDER
WICHITA        CLOUDY    67  62  84 SE18      29.82F
OMAHA          CLOUDY    65  61  87 E8        29.84R
LINCOLN        LGT RAIN  63  59  87 S9        29.84F
FALLS CITY     CLOUDY    64  59  83 W9        29.86R
LAMONI         PTSUNNY   64  63  96 NE5       29.87R
DES MOINES     TSTM      66  62  87 NE12      29.84F FOG

$$







000
ASUS43 KEAX 251110
RWREAX

WEATHER ROUNDUP FOR EASTERN KANSAS AND NORTHWEST MISSOURI
NATIONAL WEATHER SERVICE KANSAS CITY/PLEASANT HILL MO
600 AM CDT WED MAY 25 2016

KSZ040-057-103>105-MOZ028-029-037-043-251200-
...KANSAS CITY METROPOLITAN AREA...

CITY           SKY/WX    TMP DP  RH WIND       PRES   REMARKS
K.C. INTL      CLOUDY    69  54  58 S17G23    29.79F
K.C. DOWNTOWN  CLOUDY    70  57  63 SW13G18   29.78F
LEES SUMMIT    CLOUDY    65  58  78 S16       29.82F
OLATHE - IXD   CLOUDY    69  55  60 S25G35    29.80F
OLATHE - OJC   CLOUDY    70  53  54 S21G36    29.82F
LAWRENCE       CLOUDY    69  55  60 SE23G36   29.75F

$$

MOZ001>008-011>017-020>025-030>033-038>040-044>046-053-054-251200-
...NORTHERN AND CENTRAL MISSOURI...

CITY           SKY/WX    TMP DP  RH WIND       PRES   REMARKS
ST. JOSEPH     MOCLDY    69  56  62 S15       29.77R
MOSBY          CLOUDY    64  59  82 SE12      29.80F
WARRENSBURG    CLOUDY    63  61  94 SE7       29.88F
WHITEMAN AFB   MOCLDY    64  64 100 S8        29.91F
CLINTON        CLOUDY    64  64 100 S7        29.96F FOG
SEDALIA        CLOUDY    65  63  93 S8        29.96F
WARSAW         NOT AVBL
CHILLICOTHE      N/A     66  63  90 SE6       29.86F
KIRKSVILLE     CLOUDY    64  62  93 S10       29.93S

$$

MOZ041-047>049-056>058-063>065-088>090-097-251200-
...EASTERN AND SOUTHERN MISSOURI...

CITY           SKY/WX    TMP DP  RH WIND       PRES   REMARKS
ST. LOUIS INTL CLOUDY    66  60  81 SE7       30.02R
SPIRIT OF STL  CLOUDY    60  60 100 CALM      30.01R
COLUMBIA       CLOUDY    63  62  97 S7        29.98R
JEFFERSON CITY CLOUDY    63  61  93 E3        29.98R
ROLLA          CLOUDY    62  60  93 SW10      30.00R
SPRINGFIELD    LGT RAIN  67  63  87 SW10      30.04R
JOPLIN         LGT RAIN  66  63  90 E3        30.04R
WEST PLAINS    FOG       60  57  89 CALM      30.07R VSB 1

$$

IAZ060-094-KSZ022-034>040-054-083-096-NEZ052-066-093-251200-
...KANSAS...SOUTHEAST NEBRASKA AND IOWA...

CITY           SKY/WX    TMP DP  RH WIND       PRES   REMARKS
TOPEKA         CLOUDY    69  55  60 VRB6      29.79F
MANHATTAN      CLOUDY    63  60  90 CALM      29.78F
EMPORIA        CLOUDY    66  56  70 SE17G25   29.80F
CHANUTE        CLOUDY    65  60  84 E8        29.89F
WICHITA        CLOUDY    67  61  81 SE15      29.83S
OMAHA          LGT RAIN  65  60  84 NW5       29.82R
LINCOLN        LGT RAIN  65  58  78 CALM      29.85F
FALLS CITY     MOCLDY    65  59  81 SW14G22   29.79R
LAMONI         CLOUDY    64  62  93 E6        29.83F
DES MOINES     TSTM      66  63  90 E12       29.88F

$$







000
ASUS43 KEAX 250910
RWREAX

WEATHER ROUNDUP FOR EASTERN KANSAS AND NORTHWEST MISSOURI
NATIONAL WEATHER SERVICE KANSAS CITY/PLEASANT HILL MO
400 AM CDT WED MAY 25 2016

KSZ040-057-103>105-MOZ028-029-037-043-251000-
...KANSAS CITY METROPOLITAN AREA...

CITY           SKY/WX    TMP DP  RH WIND       PRES   REMARKS
K.C. INTL      LGT RAIN  65  60  84 W14G23    29.88F
K.C. DOWNTOWN  LGT RAIN  67  62  84 S7        29.91F
LEES SUMMIT    LGT RAIN  65  62  90 S9        29.95S
OLATHE - IXD   LGT RAIN  63  61  93 W17G24    29.95S
OLATHE - OJC   LGT RAIN  63  60  90 W6        29.92F
LAWRENCE       LGT RAIN  62  61  96 SW21G26   29.97R FOG

$$

MOZ001>008-011>017-020>025-030>033-038>040-044>046-053-054-251000-
...NORTHERN AND CENTRAL MISSOURI...

CITY           SKY/WX    TMP DP  RH WIND       PRES   REMARKS
ST. JOSEPH     LGT RAIN  66  61  84 SW18G24   29.88F
MOSBY          CLOUDY    66  63  88 SW3       29.90F
WARRENSBURG    LGT RAIN  64  63  94 SW9       29.94R
WHITEMAN AFB   LGT RAIN  64  64 100 W12       29.94R
CLINTON        CLOUDY    64  64 100 S5        29.95R
SEDALIA        CLOUDY    64  62  93 S7        29.93S
WARSAW         NOT AVBL
CHILLICOTHE      N/A     67  63  87 S6        29.90R
KIRKSVILLE     CLOUDY    63  62  97 S8        29.92S

$$

MOZ041-047>049-056>058-063>065-088>090-097-251000-
...EASTERN AND SOUTHERN MISSOURI...

CITY           SKY/WX    TMP DP  RH WIND       PRES   REMARKS
ST. LOUIS INTL MOCLDY    66  61  84 SE8       29.98S
SPIRIT OF STL  CLEAR     61  61 100 CALM      29.97R
COLUMBIA       MOCLDY    61  61 100 SE10      29.94S
JEFFERSON CITY MOCLDY    62  60  93 E8        29.95S
ROLLA          CLOUDY    60  59  96 S7        29.97R
SPRINGFIELD    CLOUDY    65  62  90 S8        29.97R
JOPLIN         LGT RAIN  68  66  93 NE7       29.94F
WEST PLAINS    PTCLDY    59  56  89 CALM      30.02R

$$

IAZ060-094-KSZ022-034>040-054-083-096-NEZ052-066-093-251000-
...KANSAS...SOUTHEAST NEBRASKA AND IOWA...

CITY           SKY/WX    TMP DP  RH WIND       PRES   REMARKS
TOPEKA         LGT RAIN  65  59  81 SE26G44   29.82F
MANHATTAN      LGT RAIN  63  62  97 CALM      29.80F
EMPORIA        LGT RAIN  64  59  83 SE25G33   29.86F
CHANUTE        LGT RAIN  66  59  78 N13       29.96R
WICHITA        CLOUDY    64  62  93 SE14      29.86F
OMAHA          LGT RAIN  66  60  81 SE10      29.79S
LINCOLN        CLOUDY    68  56  65 SE8       29.73R
FALLS CITY     CLOUDY    64  62  93 CALM      29.83F
LAMONI         CLOUDY    66  64  93 S13       29.86R
DES MOINES     CLOUDY    67  63  87 SE7       29.85R

$$







000
ASUS43 KEAX 250710
RWREAX

WEATHER ROUNDUP FOR EASTERN KANSAS AND NORTHWEST MISSOURI
NATIONAL WEATHER SERVICE KANSAS CITY/PLEASANT HILL MO
200 AM CDT WED MAY 25 2016

KSZ040-057-103>105-MOZ028-029-037-043-250800-
...KANSAS CITY METROPOLITAN AREA...

CITY           SKY/WX    TMP DP  RH WIND       PRES   REMARKS
K.C. INTL      CLOUDY    68  64  87 SE9       29.88F
K.C. DOWNTOWN  CLOUDY    70  63  78 SE5       29.88F
LEES SUMMIT    CLOUDY    65  62  90 SE5       29.90F
OLATHE - IXD   CLOUDY    68  65  90 S10       29.91S
OLATHE - OJC   CLOUDY    65  63  93 S7        29.90F
LAWRENCE         N/A     65  61  87 MISG      29.92R

$$

MOZ001>008-011>017-020>025-030>033-038>040-044>046-053-054-250800-
...NORTHERN AND CENTRAL MISSOURI...

CITY           SKY/WX    TMP DP  RH WIND       PRES   REMARKS
ST. JOSEPH     CLOUDY    71  66  84 S7        29.86F
MOSBY          CLOUDY    68  61  77 SE5       29.89F
WARRENSBURG    CLOUDY    61  59  94 SE6       29.91F
WHITEMAN AFB   MOCLDY    63  63 100 SE5       29.91F
CLINTON        PTCLDY    63  63 100 CALM      29.93F
SEDALIA        CLOUDY    63  60  90 SE3       29.94S
WARSAW         NOT AVBL
CHILLICOTHE      N/A     68  65  90 SE5       29.92F
KIRKSVILLE     CLOUDY    62  61  96 SE6       29.95F

$$

MOZ041-047>049-056>058-063>065-088>090-097-250800-
...EASTERN AND SOUTHERN MISSOURI...

CITY           SKY/WX    TMP DP  RH WIND       PRES   REMARKS
ST. LOUIS INTL CLOUDY    67  62  84 S6        30.01F
SPIRIT OF STL  CLOUDY    62  61  96 CALM      29.99F
COLUMBIA       CLOUDY    62  61  96 E7        29.95F
JEFFERSON CITY PTCLDY    64  61  90 E7        29.94F
ROLLA          CLOUDY    62  60  93 SE8       29.95F
SPRINGFIELD    CLOUDY    66  62  87 S12       29.97R
JOPLIN         CLOUDY    71  63  75 SE6       29.88F
WEST PLAINS    CLEAR     61  58  90 E5        29.99F

$$

IAZ060-094-KSZ022-034>040-054-083-096-NEZ052-066-093-250800-
...KANSAS...SOUTHEAST NEBRASKA AND IOWA...

CITY           SKY/WX    TMP DP  RH WIND       PRES   REMARKS
TOPEKA         TSTM      63  61  93 NW7       29.92F FOG
EMPORIA        LGT RAIN  63  60  90 NE5       29.94S
CHANUTE        CLOUDY    70  59  68 NW20G31   29.96R
WICHITA        TSTM      63  61  93 NE15      29.87S
OMAHA          TSTM      69  64  84 W33G49    29.88R VSB 1
LINCOLN        LGT RAIN  63  59  87 S17       29.88R
FALLS CITY     LGT RAIN  66  61  84 NW5       29.86F
LAMONI         CLOUDY    65  63  93 SE8       29.89F
DES MOINES     CLOUDY    69  63  81 SE7       29.89F

$$







000
ASUS43 KEAX 250010
RWREAX

WEATHER ROUNDUP FOR EASTERN KANSAS AND NORTHWEST MISSOURI
NATIONAL WEATHER SERVICE KANSAS CITY/PLEASANT HILL MO
700 PM CDT TUE MAY 24 2016

KSZ040-057-103>105-MOZ028-029-037-043-250100-
...KANSAS CITY METROPOLITAN AREA...

CITY           SKY/WX    TMP DP  RH WIND       PRES   REMARKS
K.C. INTL      MOSUNNY   78  66  66 S7        29.90S
6HR MIN TEMP:  71; 6HR MAX TEMP:  79; 6HR PCP: TRACE;

K.C. DOWNTOWN  SUNNY     80  64  58 S7        29.89S
6HR MIN TEMP:  73; 6HR MAX TEMP:  81;

LEES SUMMIT    CLOUDY    78  64  61 S9        29.92R
6HR MIN TEMP:  70; 6HR MAX TEMP:  79;

OLATHE - IXD   SUNNY     78  68  71 S8        29.91R
6HR MIN TEMP:  73; 6HR MAX TEMP:  79;

OLATHE - OJC   SUNNY     77  67  71 S7        29.91R
6HR MIN TEMP:  71; 6HR MAX TEMP:  77;

LAWRENCE       MOSUNNY   79  69  71 S8        29.88R

$$

MOZ001>008-011>017-020>025-030>033-038>040-044>046-053-054-250100-
...NORTHERN AND CENTRAL MISSOURI...

CITY           SKY/WX    TMP DP  RH WIND       PRES   REMARKS
ST. JOSEPH     SUNNY     79  64  60 E8        29.88F
6HR MIN TEMP:  73; 6HR MAX TEMP:  80;

MOSBY          CLEAR     77  64  65 SE5       29.90S
WARRENSBURG    MOSUNNY   75  64  69 SE8       29.93R
WHITEMAN AFB   PTSUNNY   75  66  73 S10       29.93R
6HR MIN TEMP:  68; 6HR MAX TEMP:  78;

CLINTON        CLOUDY    75  66  73 S12       29.94R
SEDALIA        MOSUNNY   75  64  68 S9        29.96R
6HR MIN TEMP:  68; 6HR MAX TEMP:  78;

WARSAW         NOT AVBL
CHILLICOTHE      N/A     77  66  68 SE5       29.94R
6HR MIN TEMP:  75; 6HR MAX TEMP:  78;

KIRKSVILLE     MOSUNNY   75  66  73 SE7       29.97R
6HR MIN TEMP:  75; 6HR MAX TEMP:  77;


$$

MOZ041-047>049-056>058-063>065-088>090-097-250100-
...EASTERN AND SOUTHERN MISSOURI...

CITY           SKY/WX    TMP DP  RH WIND       PRES   REMARKS
ST. LOUIS INTL CLOUDY    74  63  68 VRB6      29.95S
6HR MIN TEMP:  74; 6HR MAX TEMP:  87;

SPIRIT OF STL  CLOUDY    70  63  78 W7        29.96R
COLUMBIA       CLOUDY    70  65  84 S6        29.98R
JEFFERSON CITY CLOUDY    71  64  78 CALM      29.98R
ROLLA          PTSUNNY   66  63  90 SW7       29.97R
SPRINGFIELD    MOSUNNY   67  61  81 S15       30.00R
BRANSON        PTSUNNY   63  63 100 SE12      30.03F
JOPLIN         CLOUDY    75  68  78 SE13G20   29.92S
WEST PLAINS    CLOUDY    64  60  87 SE7       30.03F

$$

IAZ060-094-KSZ022-034>040-054-083-096-NEZ052-066-093-250100-
...KANSAS...SOUTHEAST NEBRASKA AND IOWA...

CITY           SKY/WX    TMP DP  RH WIND       PRES   REMARKS
TOPEKA         PTSUNNY   80  68  66 SE9       29.87R
6HR MIN TEMP:  75; 6HR MAX TEMP:  82; 6HR PCP: TRACE;

MANHATTAN      SUNNY     82  66  58 S10       29.82F
EMPORIA        MOSUNNY   80  71  74 S10       29.86F
CHANUTE        CLOUDY    78  70  76 SE9       29.87F
WICHITA        MOSUNNY   81  69  67 SE17      29.79F
OMAHA          MOSUNNY   81  59  47 SE7       29.86S
LINCOLN        MOSUNNY   80  60  50 S6        29.86F
FALLS CITY     SUNNY     82  63  52 S3        29.85F
LAMONI         SUNNY     78  60  53 SE9       29.92R
DES MOINES     MOSUNNY   82  58  43 S8        29.89R

$$







    US Dept of Commerce
    National Oceanic and Atmospheric Administration
    National Weather Service
    1325 East West Highway
    Silver Spring, MD 20910
    Page Author: NWS Internet Services Team
Disclaimer
Information Quality
Credits
Glossary
Privacy Policy
Freedom of Information Act (FOIA)
About Us
Career Opportunities